[keps] orb12292.amsat
Ray Hoad
ray.hoad at mypbmail.com
Thu Oct 18 20:31:44 PDT 2012
SB KEPS @ AMSAT $ORB12292.O
Orbital Elements 12292.OSCAR
HR AMSAT ORBITAL ELEMENTS FOR OSCAR SATELLITES
FROM WA5QGD FORT WORTH,TX October 18, 2012
BID: ORB12292.O
TO ALL RADIO AMATEURS BT
Satellite: AO-07
Catalog number: 07530
Epoch time: 12292.44479624
Element set: 508
Inclination: 101.4124 deg
RA of node: 284.9381 deg
Eccentricity: 0.0012138
Arg of perigee: 041.3946 deg
Mean anomaly: 318.8052 deg
Mean motion: 12.53592097 rev/day
Decay rate: -2.7e-07 rev/day^2
Epoch rev: 73549
Checksum: 300
Satellite: FO-29
Catalog number: 24278
Epoch time: 12292.46042562
Element set: 959
Inclination: 098.5871 deg
RA of node: 016.9948 deg
Eccentricity: 0.0351243
Arg of perigee: 070.2321 deg
Mean anomaly: 293.6338 deg
Mean motion: 13.52990358 rev/day
Decay rate: 3.4e-07 rev/day^2
Epoch rev: 79862
Checksum: 339
Satellite: SO-33
Catalog number: 25509
Epoch time: 12292.51922542
Element set: 346
Inclination: 031.4338 deg
RA of node: 355.7047 deg
Eccentricity: 0.0352069
Arg of perigee: 202.5779 deg
Mean anomaly: 155.8986 deg
Mean motion: 14.28846504 rev/day
Decay rate: 7.56e-06 rev/day^2
Epoch rev: 73030
Checksum: 321
Satellite: RS-22
Catalog number: 27939
Epoch time: 12292.76541013
Element set: 825
Inclination: 097.8030 deg
RA of node: 127.2070 deg
Eccentricity: 0.0012327
Arg of perigee: 231.0550 deg
Mean anomaly: 128.9577 deg
Mean motion: 14.64173189 rev/day
Decay rate: 7.09e-06 rev/day^2
Epoch rev: 48396
Checksum: 308
Satellite: VO-52
Catalog number: 28650
Epoch time: 12292.58752208
Element set: 237
Inclination: 097.5872 deg
RA of node: 317.4640 deg
Eccentricity: 0.0026417
Arg of perigee: 358.4118 deg
Mean anomaly: 001.7010 deg
Mean motion: 14.83272924 rev/day
Decay rate: 1.984e-05 rev/day^2
Epoch rev: 40326
Checksum: 303
Satellite: HO-68
Catalog number: 36122
Epoch time: 12292.87937445
Element set: 930
Inclination: 100.3464 deg
RA of node: 349.6488 deg
Eccentricity: 0.0007434
Arg of perigee: 183.0299 deg
Mean anomaly: 177.0767 deg
Mean motion: 13.16298950 rev/day
Decay rate: -4.4e-07 rev/day^2
Epoch rev: 13666
Checksum: 334
/EX
SB KEPS @ AMSAT $ORB12292.D
Orbital Elements 12292.MICROS
HR AMSAT ORBITAL ELEMENTS FOR THE MICROSATS
FROM WA5QGD FORT WORTH,TX October 18, 2012
BID: ORB12292.D
TO ALL RADIO AMATEURS BT
Satellite: UO-11
Catalog number: 14781
Epoch time: 12291.71938959
Element set: 0001
Inclination: 097.9388 deg
RA of node: 350.0790 deg
Eccentricity: 0.0008572
Arg of perigee: 005.0505 deg
Mean anomaly: 355.0792 deg
Mean motion: 14.80604236 rev/day
Decay rate: 9.66e-06 rev/day^2
Epoch rev: 51705
Checksum: 309
Satellite: AO-16
Catalog number: 20439
Epoch time: 12292.89504124
Element set: 584
Inclination: 098.4408 deg
RA of node: 232.8708 deg
Eccentricity: 0.0011075
Arg of perigee: 148.4791 deg
Mean anomaly: 211.7068 deg
Mean motion: 14.32096557 rev/day
Decay rate: 1.72e-06 rev/day^2
Epoch rev: 18770
Checksum: 312
Satellite: LO-19
Catalog number: 20442
Epoch time: 12292.89937751
Element set: 514
Inclination: 098.4092 deg
RA of node: 235.4569 deg
Eccentricity: 0.0012449
Arg of perigee: 141.0822 deg
Mean anomaly: 219.1258 deg
Mean motion: 14.32312508 rev/day
Decay rate: 2.03e-06 rev/day^2
Epoch rev: 18789
Checksum: 306
Satellite: AO-27
Catalog number: 22825
Epoch time: 12291.87801994
Element set: 0222
Inclination: 098.5859 deg
RA of node: 232.8485 deg
Eccentricity: 0.0007609
Arg of perigee: 280.7582 deg
Mean anomaly: 079.2763 deg
Mean motion: 14.29496462 rev/day
Decay rate: 6.6e-07 rev/day^2
Epoch rev: 99400
Checksum: 351
Satellite: IO-26
Catalog number: 22826
Epoch time: 12292.55510408
Element set: 975
Inclination: 098.5805 deg
RA of node: 233.8549 deg
Eccentricity: 0.0008040
Arg of perigee: 273.1011 deg
Mean anomaly: 086.9248 deg
Mean motion: 14.29774125 rev/day
Decay rate: 1.61e-06 rev/day^2
Epoch rev: 99423
Checksum: 313
Satellite: GO-32
Catalog number: 25397
Epoch time: 12292.91463173
Element set: 901
Inclination: 098.3785 deg
RA of node: 265.6317 deg
Eccentricity: 0.0000450
Arg of perigee: 329.6611 deg
Mean anomaly: 030.4573 deg
Mean motion: 14.23298958 rev/day
Decay rate: -5.0e-08 rev/day^2
Epoch rev: 74162
Checksum: 309
Satellite: NO-44
Catalog number: 26931
Epoch time: 12291.73273437
Element set: 0164
Inclination: 067.0512 deg
RA of node: 164.4912 deg
Eccentricity: 0.0005763
Arg of perigee: 251.3138 deg
Mean anomaly: 108.7313 deg
Mean motion: 14.29843869 rev/day
Decay rate: 2.43e-06 rev/day^2
Epoch rev: 57676
Checksum: 310
Satellite: SO-50
Catalog number: 27607
Epoch time: 12292.30266164
Element set: 892
Inclination: 064.5565 deg
RA of node: 280.3412 deg
Eccentricity: 0.0074783
Arg of perigee: 223.6382 deg
Mean anomaly: 135.8771 deg
Mean motion: 14.72575677 rev/day
Decay rate: 8.92e-06 rev/day^2
Epoch rev: 52809
Checksum: 332
Satellite: CO-55
Catalog number: 27844
Epoch time: 12291.57563450
Element set: 486
Inclination: 098.7049 deg
RA of node: 298.1879 deg
Eccentricity: 0.0008932
Arg of perigee: 227.3622 deg
Mean anomaly: 132.6807 deg
Mean motion: 14.21090932 rev/day
Decay rate: 2.60e-06 rev/day^2
Epoch rev: 48227
Checksum: 329
Satellite: CO-57
Catalog number: 27848
Epoch time: 12292.51648137
Element set: 436
Inclination: 098.7119 deg
RA of node: 298.5051 deg
Eccentricity: 0.0008801
Arg of perigee: 230.2705 deg
Mean anomaly: 129.7692 deg
Mean motion: 14.20834544 rev/day
Decay rate: 2.34e-06 rev/day^2
Epoch rev: 48234
Checksum: 317
Satellite: AO-51
Catalog number: 28375
Epoch time: 12292.47139307
Element set: 391
Inclination: 098.1637 deg
RA of node: 252.1193 deg
Eccentricity: 0.0084610
Arg of perigee: 027.9535 deg
Mean anomaly: 332.6159 deg
Mean motion: 14.41005839 rev/day
Decay rate: 2.97e-06 rev/day^2
Epoch rev: 43652
Checksum: 313
Satellite: CP3
Catalog number: 31129
Epoch time: 12291.57794687
Element set: 0291
Inclination: 097.8875 deg
RA of node: 292.1821 deg
Eccentricity: 0.0102076
Arg of perigee: 102.2247 deg
Mean anomaly: 259.0397 deg
Mean motion: 14.53254550 rev/day
Decay rate: 9.75e-06 rev/day^2
Epoch rev: 29175
Checksum: 325
Satellite: CO-65
Catalog number: 32785
Epoch time: 12292.84321215
Element set: 445
Inclination: 097.7848 deg
RA of node: 350.8904 deg
Eccentricity: 0.0014922
Arg of perigee: 023.4202 deg
Mean anomaly: 336.7674 deg
Mean motion: 14.83282681 rev/day
Decay rate: 1.376e-05 rev/day^2
Epoch rev: 24209
Checksum: 316
Satellite: PRISM
Catalog number: 33493
Epoch time: 12292.83794885
Element set: 174
Inclination: 098.1878 deg
RA of node: 076.5280 deg
Eccentricity: 0.0017703
Arg of perigee: 255.1413 deg
Mean anomaly: 104.7875 deg
Mean motion: 14.84541632 rev/day
Decay rate: 3.757e-05 rev/day^2
Epoch rev: 20209
Checksum: 323
Satellite: SOHLA-1
Catalog number: 33496
Epoch time: 12291.89767537
Element set: 0874
Inclination: 098.1153 deg
RA of node: 042.9000 deg
Eccentricity: 0.0007149
Arg of perigee: 019.2312 deg
Mean anomaly: 340.9155 deg
Mean motion: 14.70077251 rev/day
Decay rate: 6.75e-06 rev/day^2
Epoch rev: 20027
Checksum: 293
Satellite: SO-67
Catalog number: 35870
Epoch time: 12292.86406407
Element set: 430
Inclination: 097.2205 deg
RA of node: 324.2547 deg
Eccentricity: 0.0003878
Arg of perigee: 088.3259 deg
Mean anomaly: 032.6491 deg
Mean motion: 15.24850509 rev/day
Decay rate: 6.076e-05 rev/day^2
Epoch rev: 17145
Checksum: 317
Satellite: TISAT-1
Catalog number: 36799
Epoch time: 12292.88499402
Element set: 448
Inclination: 098.0545 deg
RA of node: 010.0934 deg
Eccentricity: 0.0015868
Arg of perigee: 129.0389 deg
Mean anomaly: 231.2263 deg
Mean motion: 14.82392228 rev/day
Decay rate: 2.609e-05 rev/day^2
Epoch rev: 12281
Checksum: 319
Satellite: STUDSAT
Catalog number: 36801
Epoch time: 12291.85232770
Element set: 0520
Inclination: 098.0613 deg
RA of node: 010.3814 deg
Eccentricity: 0.0013073
Arg of perigee: 117.8708 deg
Mean anomaly: 242.3834 deg
Mean motion: 14.85535917 rev/day
Decay rate: 7.630e-05 rev/day^2
Epoch rev: 12272
Checksum: 276
Satellite: FO-69
Catalog number: 37227
Epoch time: 12287.34946499
Element set: 0310
Inclination: 071.9694 deg
RA of node: 051.1893 deg
Eccentricity: 0.0015455
Arg of perigee: 102.7974 deg
Mean anomaly: 257.4922 deg
Mean motion: 14.77210399 rev/day
Decay rate: 6.75e-06 rev/day^2
Epoch rev: 05354
Checksum: 340
Satellite: FO-70
Catalog number: 37380
Epoch time: 12287.30727043
Element set: 0312
Inclination: 071.9727 deg
RA of node: 051.9923 deg
Eccentricity: 0.0015930
Arg of perigee: 099.5353 deg
Mean anomaly: 260.7616 deg
Mean motion: 14.76958422 rev/day
Decay rate: 6.37e-06 rev/day^2
Epoch rev: 05342
Checksum: 310
Satellite: ALMASAT-1
Catalog number: 38078
Epoch time: 12292.79849848
Element set: 662
Inclination: 069.4788 deg
RA of node: 036.4014 deg
Eccentricity: 0.0735977
Arg of perigee: 093.4588 deg
Mean anomaly: 275.0945 deg
Mean motion: 14.14040952 rev/day
Decay rate: 2.2900e-04 rev/day^2
Epoch rev: 3499
Checksum: 357
Satellite: XATCOBEO
Catalog number: 38082
Epoch time: 12292.71993569
Element set: 627
Inclination: 069.4856 deg
RA of node: 030.4420 deg
Eccentricity: 0.0685760
Arg of perigee: 090.1983 deg
Mean anomaly: 277.7689 deg
Mean motion: 14.27732273 rev/day
Decay rate: 5.4733e-04 rev/day^2
Epoch rev: 3514
Checksum: 340
/EX
SB KEPS @ AMSAT $ORB12292.W
Orbital Elements 12292.WEATHER
HR AMSAT ORBITAL ELEMENTS FOR WEATHER SATELLITES
FROM WA5QGD FORT WORTH,TX October 18, 2012
BID: ORB12292.W
TO ALL RADIO AMATEURS BT
Satellite: NOAA-10
Catalog number: 16969
Epoch time: 12291.74591816
Element set: 0101
Inclination: 098.5719 deg
RA of node: 318.5650 deg
Eccentricity: 0.0011404
Arg of perigee: 234.2083 deg
Mean anomaly: 125.8032 deg
Mean motion: 14.27585491 rev/day
Decay rate: 2.08e-06 rev/day^2
Epoch rev: 35735
Checksum: 299
Satellite: NOAA-11
Catalog number: 19531
Epoch time: 12291.75958918
Element set: 0094
Inclination: 098.7277 deg
RA of node: 014.3092 deg
Eccentricity: 0.0010320
Arg of perigee: 233.4054 deg
Mean anomaly: 126.6170 deg
Mean motion: 14.14985132 rev/day
Decay rate: -5.1e-07 rev/day^2
Epoch rev: 24184
Checksum: 285
